{"data":{"norad_id":62159,"epoch":"2026-09-20T22:59:06.479232Z","epoch_age_seconds":142006,"freshness":"FRESH","line1":"1 62159U 24224W   26263.95771388  .00013101  00000+0  48470-3 0  9995","line2":"2 62159  43.0002 138.8002 0001004 271.0662  89.0075 15.27583831102145","mean_motion":15.27583831,"eccentricity":0.0001004,"inclination_deg":43.0002,"raan_deg":138.8002,"arg_perigee_deg":271.0662,"mean_anomaly_deg":89.0075,"bstar":0.0004847,"rev_number":10214,"period_min":94.266512303769,"perigee_km":482.34876273912,"apogee_km":483.72648660375,"semimajor_km":6861.1746246714,"source":"CELESTRAK","updated_at":"2026-09-22T09:00:49.533458Z"}}